Погода в Кабале

Погода в Кабале : погода сейчас, прогноз погоды и архив. Всё, что Вы хотите узнать о погоде в Кабале!

Поиск расширенной информации на нашем сайте:

Полезная информация: Цветы в шляпных коробках цветы в шляпных коробках. 3

Другие новости

Новости СМИ2

Главная страница сайта

Новости сайта

02.10.2013

Напоминаем, что на нашем новом сайте вы можете получить высокодетализированные прогнозы погоды по пунктам России, СНГ и мира (включающие важные для авиации метеовеличины, такие как направление и скорость ветра, видимость, явления погоды, количество и форма облачности, нижняя и верхняя граница облачности), а также ознакомиться с разнообразными материалами по авиационной метеорологии и подборкой полезных ссылок на эту тему.

Сайт Метеоцентр.Азия посвящён разработке технологий оптимизации авиаметеорологического обслуживания, включая проектирование и перспективное создание нескольких автоматизированных авиаметеорологических систем:
- система выпуска высокодетальных прогностических карт явлений погоды для нижнего воздушного пространства по России и ближнему зарубежью;
- система верификации прогнозов TAF (выпускаемых синоптиками официальных АМСГ РФ и ближнего зарубежья) и AUTOTAF (выпускаемых сайтом Метеоцентр.Азия) - выявление ошибок, онлайн-сопоставление с фактической погодой METAR, автоматическое внесение коррективов в прогнозы при резком отклонении фактической погоды от прогноза, подсчёт оправдываемости прогнозов по элементам и в целом;
- система обработки, анализа и отображения авиаметеорологической информации для применения провайдерами метеорологической информации.

Рекомендуем: У нас товары для похудения приобрести реально выгодно!

Погода в Кабале - сегодня

Время (UTC), дата Ветер
(°,м/с) 
Видим.   Явления Облачность Т
(°С)
Тd
(°С)
f(%) Тe
(°С)
Pmin
(гПа)
dP
(гПа)
Po
(мм)
O2
(г/м3)
Тmin Tmax R s Состояние
почвы
00 24.03.17 050 (СВ) 4000 м  дождь  10/10 600 м 
[Ns]
+2.2 +1.2 93 +2  1026.5  0.2  708  283           
03 24.03.17 090 (В) 4000 м  дождь  10/10 600 м 
[Ns]
+2 +0.9 92 +3  1027.3  -0.6  709  283      17     
06 24.03.17 090 (В) 10 км  дождь  10/10 600 м 
[Ns]
+2.8 +1.8 93 +2  1027.4  1.2  709  283           
09 24.03.17 090 (В) 10 км    10/10 600 м 
[Sc]
+4 +2.8 92 +5  1027  709  281           
12 24.03.17 180 (Ю) 10 км    9/9 600 м 
[Sc]
+6.4 +3.8 83 +7  1026.6  -0.5  709  278           
15 24.03.17 180 (Ю) 10 км    10/10 600 м 
[Sc]
+4.4 +3.4 93 +5  1028.5  1.2  710  281         
18 24.03.17 180 (Ю) 4000 м  слаб. дождь  10/10 600 м 
[Ns]
+3.6 +2.9 95 +4  1028.7  -0.1  710  282    +7       
21 24.03.17 180 (Ю) 4000 м  слаб. дождь  10/10 600 м 
[Ns]
+3.2 +2.4 94 +4  1028.8  710  282           
00 25.03.17 110 (В) 0200 м    ?/?  
+2.8 +2.5 98 +2    -1.4  709  282           
03 25.03.17 160 (Ю) 0200 м  туман  ?/?  
+2.6 +2.3 98 +3  1025.7  -1.6  708  282         
06 25.03.17 180 (Ю) 0200 м  туман  ?/?  
+2.8 +2.5 98 +4  1025.9  0.2  708  282           
09 25.03.17 270 (З) 0200 м  туман  ?/?  
+4.4 +4.2 99 +5  1024.1  -1.2  707  280           
12 25.03.17 270 (З) 10 км    8/8 600 м 
[Sc]
+8.2 +5.9 85 +8  1019.8  -2.8  705  275           
15 25.03.17 270 (З) 10 км    8/8 600 м 
[Sc]
+7.2 +3.4 77 +8  1018.9  -1.2  704  276           
18 25.03.17 180 (Ю) 4000 м    10/10 600 м 
[Sc]
+6 +4.6 91 +7  1019.5  0.3  704  277    +9       
21 25.03.17 090 (В) 4000 м    10/10 600 м 
[Sc]
+5.6 +3.7 88 +6  1019.3  -0.3  704  277           
00 26.03.17 360 (С) 4000 м    10/10 600 м 
[Sc]
+4.8 +3.1 89 +6  1019.4  -0.1  704  278           
03 26.03.17 360 (С) 20000 м    3/3 1000 м 
[Sc]
+3.4 +0.2 80 +4  1019.2  -0.7  703  280           
06 26.03.17 230 (ЮЗ) 10 км    4/4 600 м 
[Sc]
+6.8 +3.8 81 +8  1018.3  0.3  703  276           
09 26.03.17 230 (ЮЗ) 10 км    4/4 600 м 
[Sc]
+9.8 +4.6 70 +11  1017.2  -0.2  703  273           
12 26.03.17 250 (З) 10 км    5/5 600 м 
[Sc]
+13.2 +5.6 60 +14  1014.1  -2  702  269           
15 26.03.17 230 (ЮЗ) 10 км    3/3 600 м 
[Sc]
+12.3 +6.7 69 +14  1014.4  0.1  702  269           
18 26.03.17 050 (СВ) 20000 м    ясно 
+8.2 +5.9 85 +9  1016.1  0.5  702  274    +13.5       
21 26.03.17 360 (С) 20000 м    ясно 
+6.8 +4.7 86 +8  1016.8  0.2  702  275           
00 27.03.17 360 (С) 20000 м    ясно 
+5.6 +2.4 80 +6  1016.1  -1  702  277           
Время (UTC), дата Ветер
(°,м/с) 
Видим.   Явления Облачность Т
(°С)
Тd
(°С)
f(%) Тe
(°С)
Pmin
(гПа)
dP
(гПа)
Po
(мм)
O2
(г/м3)
Тmin Tmax R s Состояние
почвы

Для получения пояснительной информации подведите курсор к названию столбца.

ПОГОДА в Кабале - архив

Всё, что Вы хотите узнать о погоде в Кабале - удобно и подробно!

Выберите нужную дату (начиная с 1 января 2015* года) и нажмите кнопку "Найти".
Будут отображены архивные сводки погоды по пункту Кабала, начиная с указанной даты.


Отображать данные в формате CSV (для использования в таблицах Excel)


Внимание! Наш архив погоды предназначен исключительно для личного некоммерческого использования в познавательных целях. Если Вам необходимы официальные справки о состоянии погоды (для производственных, юридических, коммерческих и т.п. целей), обращайтесь в органы Росгидромета.

*Примечание: данная дата относится к архиву по метеостанциям СССР (Россия, СНГ, Балтия).
Архив по метеостанциям Зарубежной Европы и Азии (кроме Китая) хранится 10 дней, по другим регионам земного шара (Китай, Африка, Америка, Австралия, Океания) - 1 день.

Кабала - район местоположения метеостанции


Название, широта, долгота, высота метеостанции:
Кабала 41°ш. 47.9°д. 682 м над ур. моря [Азербайджан]

Дополнительная информация

В oтличие oт бoльшинства пoгoдных сайтoв мы публикуем пoдрoбную метеoинфoрмацию в детальнoм прoфессиoнальнoм фoрмате.

Характеристики температуры и влажнoсти вoздуха измеряются на высoте 2 м в тени вдали oт зданий и деревьев.
Скoрoсть ветра измеряется на высoте 10 м (на урoвне рoста челoвека скoрoсть ветра ниже в 1.5-2 раза). Если метеoстанция нахoдится в гoрoде или в лесу, тo скoрoсть ветра занижена на 2-4 м/с пo сравнению с oткрытым местoм. Скoрoсть ветра над акватoриями крупных рек и oзёр, а также на вершинах хoлмoв на 2-5 м/с выше, чем в oбычных услoвиях.
Атмoсфернoе давление в разных тoчках местнoсти мoжет значительнo oтличаться oт давления на метеoстанции, в зависимoсти oт услoвий рельефа (при пoдъёме на 10 м давление пoнижается примернo на 1 мм рт.ст.).